Year,Month,Day,Hour,Minute,Value (Times are PST for temperature in C)
2014,08,11,00,00,20.10
2014,08,11,00,01,20.10
2014,08,11,00,02,20.10
2014,08,11,00,03,20.10
2014,08,11,00,04,20.10
2014,08,11,00,05,20.10
2014,08,11,00,06,20.10
2014,08,11,00,07,20.10
2014,08,11,00,08,20.10
2014,08,11,00,09,20.10
2014,08,11,00,10,20.10
2014,08,11,00,11,20.10
2014,08,11,00,12,20.10
2014,08,11,00,13,20.10
2014,08,11,00,14,20.10
2014,08,11,00,15,20.10
2014,08,11,00,16,20.00
2014,08,11,00,17,20.00
2014,08,11,00,18,20.00
2014,08,11,00,19,19.90
2014,08,11,00,20,19.90
2014,08,11,00,21,19.90
2014,08,11,00,22,19.90
2014,08,11,00,23,19.90
2014,08,11,00,24,19.90
2014,08,11,00,25,20.00
2014,08,11,00,26,20.00
2014,08,11,00,27,20.10
2014,08,11,00,28,20.10
2014,08,11,00,29,20.10
2014,08,11,00,30,20.20
2014,08,11,00,31,20.20
2014,08,11,00,32,20.20
2014,08,11,00,33,20.20
2014,08,11,00,34,20.30
2014,08,11,00,35,20.30
2014,08,11,00,36,20.30
2014,08,11,00,37,20.40
2014,08,11,00,38,20.40
2014,08,11,00,39,20.50
2014,08,11,00,40,20.70
2014,08,11,00,41,20.80
2014,08,11,00,42,20.90
2014,08,11,00,43,21.10
2014,08,11,00,44,21.20
2014,08,11,00,45,21.40
2014,08,11,00,46,21.60
2014,08,11,00,47,21.70
2014,08,11,00,48,21.90
2014,08,11,00,49,21.90
2014,08,11,00,50,22.00
2014,08,11,00,51,22.10
2014,08,11,00,52,22.20
2014,08,11,00,53,22.30
2014,08,11,00,54,22.30
2014,08,11,00,55,22.30
2014,08,11,00,56,22.40
2014,08,11,00,57,22.40
2014,08,11,00,58,22.40
2014,08,11,00,59,22.30
2014,08,11,01,00,22.30
2014,08,11,01,01,22.30
2014,08,11,01,02,22.20
2014,08,11,01,03,22.00
2014,08,11,01,04,21.90
2014,08,11,01,05,21.80
2014,08,11,01,06,21.70
2014,08,11,01,07,21.50
2014,08,11,01,08,21.40
2014,08,11,01,09,21.30
2014,08,11,01,10,21.20
2014,08,11,01,11,21.20
2014,08,11,01,12,21.10
2014,08,11,01,13,21.00
2014,08,11,01,14,20.90
2014,08,11,01,15,20.80
2014,08,11,01,16,20.70
2014,08,11,01,17,20.60
2014,08,11,01,18,20.60
2014,08,11,01,19,20.50
2014,08,11,01,20,20.40
2014,08,11,01,21,20.40
2014,08,11,01,22,20.40
2014,08,11,01,23,20.50
2014,08,11,01,24,20.40
2014,08,11,01,25,20.40
2014,08,11,01,26,20.40
2014,08,11,01,27,20.30
2014,08,11,01,28,20.30
2014,08,11,01,29,20.30
2014,08,11,01,30,20.30
2014,08,11,01,31,20.30
2014,08,11,01,32,20.30
2014,08,11,01,33,20.30
2014,08,11,01,34,20.30
2014,08,11,01,35,20.20
2014,08,11,01,36,20.20
2014,08,11,01,37,20.20
2014,08,11,01,38,20.20
2014,08,11,01,39,20.20
2014,08,11,01,40,20.10
2014,08,11,01,41,20.00
2014,08,11,01,42,19.90
2014,08,11,01,43,19.90
2014,08,11,01,44,19.80
2014,08,11,01,45,19.70
2014,08,11,01,46,19.60
2014,08,11,01,47,19.60
2014,08,11,01,48,19.50
2014,08,11,01,49,19.50
2014,08,11,01,50,19.40
2014,08,11,01,51,19.40
2014,08,11,01,52,19.30
2014,08,11,01,53,19.20
2014,08,11,01,54,19.10
2014,08,11,01,55,19.00
2014,08,11,01,56,19.00
2014,08,11,01,57,18.90
2014,08,11,01,58,18.80
2014,08,11,01,59,18.80
2014,08,11,02,00,18.70
2014,08,11,02,01,18.70
2014,08,11,02,02,18.70
2014,08,11,02,03,18.60
2014,08,11,02,04,18.60
2014,08,11,02,05,18.50
2014,08,11,02,06,18.50
2014,08,11,02,07,18.40
2014,08,11,02,08,18.40
2014,08,11,02,09,18.30
2014,08,11,02,10,18.30
2014,08,11,02,11,18.30
2014,08,11,02,12,18.20
2014,08,11,02,13,18.20
2014,08,11,02,14,18.20
2014,08,11,02,15,18.20
2014,08,11,02,16,18.10
2014,08,11,02,17,18.10
2014,08,11,02,18,18.00
2014,08,11,02,19,18.00
2014,08,11,02,20,18.00
2014,08,11,02,21,17.90
2014,08,11,02,22,17.90
2014,08,11,02,23,17.90
2014,08,11,02,24,17.90
2014,08,11,02,25,17.80
2014,08,11,02,26,17.80
2014,08,11,02,27,17.80
2014,08,11,02,28,17.70
2014,08,11,02,29,17.70
2014,08,11,02,30,17.70
2014,08,11,02,31,17.70
2014,08,11,02,32,17.60
2014,08,11,02,33,17.60
2014,08,11,02,34,17.60
2014,08,11,02,35,17.60
2014,08,11,02,36,17.60
2014,08,11,02,37,17.50
2014,08,11,02,38,17.50
2014,08,11,02,39,17.40
2014,08,11,02,40,17.40
2014,08,11,02,41,17.40
2014,08,11,02,42,17.40
2014,08,11,02,43,17.30
2014,08,11,02,44,17.30
2014,08,11,02,45,17.30
2014,08,11,02,46,17.30
2014,08,11,02,47,17.20
2014,08,11,02,48,17.20
2014,08,11,02,49,17.20
2014,08,11,02,50,17.20
2014,08,11,02,51,17.10
2014,08,11,02,52,17.10
2014,08,11,02,53,17.10
2014,08,11,02,54,17.10
2014,08,11,02,55,17.10
2014,08,11,02,56,17.10
2014,08,11,02,57,17.10
2014,08,11,02,58,17.10
2014,08,11,02,59,17.10
2014,08,11,03,00,17.10
2014,08,11,03,01,17.10
2014,08,11,03,02,17.10
2014,08,11,03,03,17.10
2014,08,11,03,04,17.10
2014,08,11,03,05,17.00
2014,08,11,03,06,17.00
2014,08,11,03,07,17.00
2014,08,11,03,08,17.00
2014,08,11,03,09,17.00
2014,08,11,03,10,16.90
2014,08,11,03,11,16.90
2014,08,11,03,12,16.90
2014,08,11,03,13,16.90
2014,08,11,03,14,16.90
2014,08,11,03,15,16.90
2014,08,11,03,16,16.80
2014,08,11,03,17,16.80
2014,08,11,03,18,16.80
2014,08,11,03,19,16.80
2014,08,11,03,20,16.80
2014,08,11,03,21,16.80
2014,08,11,03,22,16.80
2014,08,11,03,23,16.80
2014,08,11,03,24,16.70
2014,08,11,03,25,16.70
2014,08,11,03,26,16.70
2014,08,11,03,27,16.70
2014,08,11,03,28,16.70
2014,08,11,03,29,16.70
2014,08,11,03,30,16.60
2014,08,11,03,31,16.60
2014,08,11,03,32,16.60
2014,08,11,03,33,16.60
2014,08,11,03,34,16.60
2014,08,11,03,35,16.60
2014,08,11,03,36,16.60
2014,08,11,03,37,16.60
2014,08,11,03,38,16.50
2014,08,11,03,39,16.50
2014,08,11,03,40,16.50
2014,08,11,03,41,16.50
2014,08,11,03,42,16.50
2014,08,11,03,43,16.50
2014,08,11,03,44,16.50
2014,08,11,03,45,16.60
2014,08,11,03,46,16.60
2014,08,11,03,47,16.60
2014,08,11,03,48,16.50
2014,08,11,03,49,16.50
2014,08,11,03,50,16.50
2014,08,11,03,51,16.50
2014,08,11,03,52,16.50
2014,08,11,03,53,16.40
2014,08,11,03,54,16.40
2014,08,11,03,55,16.40
2014,08,11,03,56,16.40
2014,08,11,03,57,16.40
2014,08,11,03,58,16.40
2014,08,11,03,59,16.40
2014,08,11,04,00,16.30
2014,08,11,04,01,16.30
2014,08,11,04,02,16.30
2014,08,11,04,03,16.30
2014,08,11,04,04,16.30
2014,08,11,04,05,16.20
2014,08,11,04,06,16.20
2014,08,11,04,07,16.20
2014,08,11,04,08,16.20
2014,08,11,04,09,16.10
2014,08,11,04,10,16.10
2014,08,11,04,11,16.10
2014,08,11,04,12,16.10
2014,08,11,04,13,16.00
2014,08,11,04,14,16.00
2014,08,11,04,15,16.00
2014,08,11,04,16,16.00
2014,08,11,04,17,15.90
2014,08,11,04,18,15.90
2014,08,11,04,19,15.90
2014,08,11,04,20,15.90
2014,08,11,04,21,15.90
2014,08,11,04,22,15.90
2014,08,11,04,23,15.80
2014,08,11,04,24,15.80
2014,08,11,04,25,15.80
2014,08,11,04,26,15.80
2014,08,11,04,27,15.80
2014,08,11,04,28,15.70
2014,08,11,04,29,15.70
2014,08,11,04,30,15.70
2014,08,11,04,31,15.70
2014,08,11,04,32,15.70
2014,08,11,04,33,15.60
2014,08,11,04,34,15.60
2014,08,11,04,35,15.60
2014,08,11,04,36,15.50
2014,08,11,04,37,15.50
2014,08,11,04,38,15.50
2014,08,11,04,39,15.50
2014,08,11,04,40,15.40
2014,08,11,04,41,15.40
2014,08,11,04,42,15.40
2014,08,11,04,43,15.40
2014,08,11,04,44,15.40
2014,08,11,04,45,15.40
2014,08,11,04,46,15.30
2014,08,11,04,47,15.40
2014,08,11,04,48,15.30
2014,08,11,04,49,15.30
2014,08,11,04,50,15.30
2014,08,11,04,51,15.30
2014,08,11,04,52,15.30
2014,08,11,04,53,15.30
2014,08,11,04,54,15.30
2014,08,11,04,55,15.20
2014,08,11,04,56,15.20
2014,08,11,04,57,15.20
2014,08,11,04,58,15.20
2014,08,11,04,59,15.20
2014,08,11,05,00,15.20
2014,08,11,05,01,15.20
2014,08,11,05,02,15.20
2014,08,11,05,03,15.10
2014,08,11,05,04,15.10
2014,08,11,05,05,15.10
2014,08,11,05,06,15.10
2014,08,11,05,07,15.10
2014,08,11,05,08,15.10
2014,08,11,05,09,15.10
2014,08,11,05,10,15.10
2014,08,11,05,11,15.10
2014,08,11,05,12,15.10
2014,08,11,05,13,15.10
2014,08,11,05,14,15.10
2014,08,11,05,15,15.10
2014,08,11,05,16,15.10
2014,08,11,05,17,15.10
2014,08,11,05,18,15.10
2014,08,11,05,19,15.10
2014,08,11,05,20,15.00
2014,08,11,05,21,15.00
2014,08,11,05,22,15.00
2014,08,11,05,23,15.00
2014,08,11,05,24,15.00
2014,08,11,05,25,15.00
2014,08,11,05,26,15.00
2014,08,11,05,27,15.00
2014,08,11,05,28,14.90
2014,08,11,05,29,14.90
2014,08,11,05,30,14.90
2014,08,11,05,31,14.90
2014,08,11,05,32,14.90
2014,08,11,05,33,14.90
2014,08,11,05,34,14.90
2014,08,11,05,35,14.90
2014,08,11,05,36,14.80
2014,08,11,05,37,14.80
2014,08,11,05,38,14.80
2014,08,11,05,39,14.80
2014,08,11,05,40,14.80
2014,08,11,05,41,14.80
2014,08,11,05,42,14.80
2014,08,11,05,43,14.80
2014,08,11,05,44,14.80
2014,08,11,05,45,14.80
2014,08,11,05,46,14.80
2014,08,11,05,47,14.80
2014,08,11,05,48,14.80
2014,08,11,05,49,14.70
2014,08,11,05,50,14.70
2014,08,11,05,51,14.70
2014,08,11,05,52,14.70
2014,08,11,05,53,14.70
2014,08,11,05,54,14.70
2014,08,11,05,55,14.70
2014,08,11,05,56,14.60
2014,08,11,05,57,14.60
2014,08,11,05,58,14.60
2014,08,11,05,59,14.60
2014,08,11,06,00,14.60
2014,08,11,06,01,14.60
2014,08,11,06,02,14.60
2014,08,11,06,03,14.50
2014,08,11,06,04,14.50
2014,08,11,06,05,14.50
2014,08,11,06,06,14.50
2014,08,11,06,07,14.50
2014,08,11,06,08,14.50
2014,08,11,06,09,14.50
2014,08,11,06,10,14.40
2014,08,11,06,11,14.40
2014,08,11,06,12,14.40
2014,08,11,06,13,14.40
2014,08,11,06,14,14.40
2014,08,11,06,15,14.40
2014,08,11,06,16,14.40
2014,08,11,06,17,14.40
2014,08,11,06,18,14.40
2014,08,11,06,19,14.40
2014,08,11,06,20,14.40
2014,08,11,06,21,14.30
2014,08,11,06,22,14.30
2014,08,11,06,23,14.30
2014,08,11,06,24,14.30
2014,08,11,06,25,14.30
2014,08,11,06,26,14.30
2014,08,11,06,27,14.30
2014,08,11,06,28,14.30
2014,08,11,06,29,14.30
2014,08,11,06,30,14.30
2014,08,11,06,31,14.30
2014,08,11,06,32,14.30
2014,08,11,06,33,14.30
2014,08,11,06,34,14.30
2014,08,11,06,35,14.30
2014,08,11,06,36,14.30
2014,08,11,06,37,14.30
2014,08,11,06,38,14.40
2014,08,11,06,39,14.40
2014,08,11,06,40,14.40
2014,08,11,06,41,14.40
2014,08,11,06,42,14.50
2014,08,11,06,43,14.50
2014,08,11,06,44,14.50
2014,08,11,06,45,14.50
2014,08,11,06,46,14.60
2014,08,11,06,47,14.60
2014,08,11,06,48,14.60
2014,08,11,06,49,14.60
2014,08,11,06,50,14.60
2014,08,11,06,51,14.70
2014,08,11,06,52,14.70
2014,08,11,06,53,14.70
2014,08,11,06,54,14.70
2014,08,11,06,55,14.70
2014,08,11,06,56,14.80
2014,08,11,06,57,14.80
2014,08,11,06,58,14.80
2014,08,11,06,59,14.80
2014,08,11,07,00,14.90
2014,08,11,07,01,14.90
2014,08,11,07,02,14.90
2014,08,11,07,03,15.00
2014,08,11,07,04,15.00
2014,08,11,07,05,15.00
2014,08,11,07,06,15.10
2014,08,11,07,07,15.10
2014,08,11,07,08,15.10
2014,08,11,07,09,15.10
2014,08,11,07,10,15.20
2014,08,11,07,11,15.20
2014,08,11,07,12,15.20
2014,08,11,07,13,15.20
2014,08,11,07,14,15.20
2014,08,11,07,15,15.30
2014,08,11,07,16,15.30
2014,08,11,07,17,15.40
2014,08,11,07,18,15.40
2014,08,11,07,19,15.40
2014,08,11,07,20,15.40
2014,08,11,07,21,15.50
2014,08,11,07,22,15.50
2014,08,11,07,23,15.60
2014,08,11,07,24,15.60
2014,08,11,07,25,15.60
2014,08,11,07,26,15.70
2014,08,11,07,27,15.70
2014,08,11,07,28,15.70
2014,08,11,07,29,15.80
2014,08,11,07,30,15.80
2014,08,11,07,31,15.90
2014,08,11,07,32,15.90
2014,08,11,07,33,15.90
2014,08,11,07,34,16.00
2014,08,11,07,35,16.10
2014,08,11,07,36,16.10
2014,08,11,07,37,16.20
2014,08,11,07,38,16.20
2014,08,11,07,39,16.30
2014,08,11,07,40,16.40
2014,08,11,07,41,16.40
2014,08,11,07,42,16.50
2014,08,11,07,43,16.50
2014,08,11,07,44,16.60
2014,08,11,07,45,16.70
2014,08,11,07,46,16.80
2014,08,11,07,47,16.90
2014,08,11,07,48,17.00
2014,08,11,07,49,17.10
2014,08,11,07,50,17.20
2014,08,11,07,51,17.30
2014,08,11,07,52,17.30
2014,08,11,07,53,17.40
2014,08,11,07,54,17.50
2014,08,11,07,55,17.60
2014,08,11,07,56,17.70
2014,08,11,07,57,17.80
2014,08,11,07,58,17.90
2014,08,11,07,59,18.00
2014,08,11,08,00,18.10
2014,08,11,08,01,18.10
2014,08,11,08,02,18.20
2014,08,11,08,03,18.30
2014,08,11,08,04,18.40
2014,08,11,08,05,18.50
2014,08,11,08,06,18.60
2014,08,11,08,07,18.60
2014,08,11,08,08,18.70
2014,08,11,08,09,18.80
2014,08,11,08,10,18.90
2014,08,11,08,11,18.90
2014,08,11,08,12,19.00
2014,08,11,08,13,19.00
2014,08,11,08,14,19.10
2014,08,11,08,15,19.10
2014,08,11,08,16,19.20
2014,08,11,08,17,19.20
2014,08,11,08,18,19.30
2014,08,11,08,19,19.30
2014,08,11,08,20,19.30
2014,08,11,08,21,19.40
2014,08,11,08,22,19.40
2014,08,11,08,23,19.40
2014,08,11,08,24,19.40
2014,08,11,08,25,19.40
2014,08,11,08,26,19.50
2014,08,11,08,27,19.50
2014,08,11,08,28,19.50
2014,08,11,08,29,19.60
2014,08,11,08,30,19.60
2014,08,11,08,31,19.70
2014,08,11,08,32,19.80
2014,08,11,08,33,19.80
2014,08,11,08,34,19.90
2014,08,11,08,35,20.00
2014,08,11,08,36,20.00
2014,08,11,08,37,20.10
2014,08,11,08,38,20.10
2014,08,11,08,39,20.20
2014,08,11,08,40,20.20
2014,08,11,08,41,20.20
2014,08,11,08,42,20.30
2014,08,11,08,43,20.30
2014,08,11,08,44,20.30
2014,08,11,08,45,20.40
2014,08,11,08,46,20.40
2014,08,11,08,47,20.40
2014,08,11,08,48,20.40
2014,08,11,08,49,20.50
2014,08,11,08,50,20.50
2014,08,11,08,51,20.50
2014,08,11,08,52,20.50
2014,08,11,08,53,20.50
2014,08,11,08,54,20.50
2014,08,11,08,55,20.60
2014,08,11,08,56,20.60
2014,08,11,08,57,20.60
2014,08,11,08,58,20.60
2014,08,11,08,59,20.60
2014,08,11,09,00,20.70
2014,08,11,09,01,20.70
2014,08,11,09,02,20.80
2014,08,11,09,03,20.80
2014,08,11,09,04,20.90
2014,08,11,09,05,20.90
2014,08,11,09,06,21.00
2014,08,11,09,07,21.10
2014,08,11,09,08,21.10
2014,08,11,09,09,21.20
2014,08,11,09,10,21.20
2014,08,11,09,11,21.20
2014,08,11,09,12,21.20
2014,08,11,09,13,21.30
2014,08,11,09,14,21.30
2014,08,11,09,15,21.40
2014,08,11,09,16,21.40
2014,08,11,09,17,21.50
2014,08,11,09,18,21.60
2014,08,11,09,19,21.70
2014,08,11,09,20,21.80
2014,08,11,09,21,21.80
2014,08,11,09,22,21.80
2014,08,11,09,23,21.90
2014,08,11,09,24,21.90
2014,08,11,09,25,22.00
2014,08,11,09,26,22.10
2014,08,11,09,27,22.10
2014,08,11,09,28,22.20
2014,08,11,09,29,22.30
2014,08,11,09,30,22.30
2014,08,11,09,31,22.30
2014,08,11,09,32,22.40
2014,08,11,09,33,22.40
2014,08,11,09,34,22.40
2014,08,11,09,35,22.50
2014,08,11,09,36,22.50
2014,08,11,09,37,22.60
2014,08,11,09,38,22.70
2014,08,11,09,39,22.70
2014,08,11,09,40,22.80
2014,08,11,09,41,22.80
2014,08,11,09,42,22.90
2014,08,11,09,43,23.00
2014,08,11,09,44,23.00
2014,08,11,09,45,23.10
2014,08,11,09,46,23.10
2014,08,11,09,47,23.20
2014,08,11,09,48,23.20
2014,08,11,09,49,23.20
2014,08,11,09,50,23.30
2014,08,11,09,51,23.30
2014,08,11,09,52,23.30
2014,08,11,09,53,23.30
2014,08,11,09,54,23.40
2014,08,11,09,55,23.40
2014,08,11,09,56,23.50
2014,08,11,09,57,23.60
2014,08,11,09,58,23.70
2014,08,11,09,59,23.70
2014,08,11,10,00,23.80
2014,08,11,10,01,23.90
2014,08,11,10,02,23.90
2014,08,11,10,03,24.00
2014,08,11,10,04,24.00
2014,08,11,10,05,24.00
2014,08,11,10,06,24.10
2014,08,11,10,07,24.10
2014,08,11,10,08,24.10
2014,08,11,10,09,24.20
2014,08,11,10,10,24.20
2014,08,11,10,11,24.20
2014,08,11,10,12,24.30
2014,08,11,10,13,24.30
2014,08,11,10,14,24.30
2014,08,11,10,15,24.30
2014,08,11,10,16,24.30
2014,08,11,10,17,24.30
2014,08,11,10,18,24.40
2014,08,11,10,19,24.40
2014,08,11,10,20,24.40
2014,08,11,10,21,24.40
2014,08,11,10,22,24.40
2014,08,11,10,23,24.40
2014,08,11,10,24,24.40
2014,08,11,10,25,24.50
2014,08,11,10,26,24.50
2014,08,11,10,27,24.50
2014,08,11,10,28,24.60
2014,08,11,10,29,24.60
2014,08,11,10,30,24.60
2014,08,11,10,31,24.60
2014,08,11,10,32,24.60
2014,08,11,10,33,24.60
2014,08,11,10,34,24.60
2014,08,11,10,35,24.60
2014,08,11,10,36,24.70
2014,08,11,10,37,24.70
2014,08,11,10,38,24.80
2014,08,11,10,39,24.80
2014,08,11,10,40,24.80
2014,08,11,10,41,24.80
2014,08,11,10,42,24.90
2014,08,11,10,43,24.90
2014,08,11,10,44,24.90
2014,08,11,10,45,24.90
2014,08,11,10,46,24.90
2014,08,11,10,47,25.00
2014,08,11,10,48,25.00
2014,08,11,10,49,25.00
2014,08,11,10,50,25.00
2014,08,11,10,51,25.10
2014,08,11,10,52,25.10
2014,08,11,10,53,25.10
2014,08,11,10,54,25.20
2014,08,11,10,55,25.20
2014,08,11,10,56,25.20
2014,08,11,10,57,25.30
2014,08,11,10,58,25.40
2014,08,11,10,59,25.40
2014,08,11,11,00,25.50
2014,08,11,11,01,25.60
2014,08,11,11,02,25.60
2014,08,11,11,03,25.70
2014,08,11,11,04,25.70
2014,08,11,11,05,25.70
2014,08,11,11,06,25.70
2014,08,11,11,07,25.70
2014,08,11,11,08,25.80
2014,08,11,11,09,25.80
2014,08,11,11,10,25.90
2014,08,11,11,11,25.90
2014,08,11,11,12,25.90
2014,08,11,11,13,26.00
2014,08,11,11,14,26.10
2014,08,11,11,15,26.10
2014,08,11,11,16,26.10
2014,08,11,11,17,26.20
2014,08,11,11,18,26.20
2014,08,11,11,19,26.20
2014,08,11,11,20,26.20
2014,08,11,11,21,26.20
2014,08,11,11,22,26.20
2014,08,11,11,23,26.30
2014,08,11,11,24,26.30
2014,08,11,11,25,26.30
2014,08,11,11,26,26.30
2014,08,11,11,27,26.40
2014,08,11,11,28,26.40
2014,08,11,11,29,26.40
2014,08,11,11,30,26.50
2014,08,11,11,31,26.50
2014,08,11,11,32,26.50
2014,08,11,11,33,26.60
2014,08,11,11,34,26.60
2014,08,11,11,35,26.60
2014,08,11,11,36,26.60
2014,08,11,11,37,26.70
2014,08,11,11,38,26.70
2014,08,11,11,39,26.60
2014,08,11,11,40,26.60
2014,08,11,11,41,26.60
2014,08,11,11,42,26.60
2014,08,11,11,43,26.60
2014,08,11,11,44,26.70
2014,08,11,11,45,26.70
2014,08,11,11,46,26.60
2014,08,11,11,47,26.60
2014,08,11,11,48,26.60
2014,08,11,11,49,26.60
2014,08,11,11,50,26.60
2014,08,11,11,51,26.60
2014,08,11,11,52,26.60
2014,08,11,11,53,26.60
2014,08,11,11,54,26.50
2014,08,11,11,55,26.50
2014,08,11,11,56,26.50
2014,08,11,11,57,26.50
2014,08,11,11,58,26.50
2014,08,11,11,59,26.60
2014,08,11,12,00,26.60
2014,08,11,12,01,26.70
2014,08,11,12,02,26.60
2014,08,11,12,03,26.50
2014,08,11,12,04,26.40
2014,08,11,12,05,26.20
2014,08,11,12,06,26.10
2014,08,11,12,07,26.00
2014,08,11,12,08,25.90
2014,08,11,12,09,25.80
2014,08,11,12,10,25.80
2014,08,11,12,11,25.70
2014,08,11,12,12,25.70
2014,08,11,12,13,25.60
2014,08,11,12,14,25.50
2014,08,11,12,15,25.50
2014,08,11,12,16,25.40
2014,08,11,12,17,25.50
2014,08,11,12,18,25.50
2014,08,11,12,19,25.60
2014,08,11,12,20,25.60
2014,08,11,12,21,25.60
2014,08,11,12,22,25.60
2014,08,11,12,23,25.60
2014,08,11,12,24,25.60
2014,08,11,12,25,25.70
2014,08,11,12,26,25.80
2014,08,11,12,27,25.80
2014,08,11,12,28,25.90
2014,08,11,12,29,25.90
2014,08,11,12,30,25.90
2014,08,11,12,31,26.00
2014,08,11,12,32,25.90
2014,08,11,12,33,25.90
2014,08,11,12,34,25.90
2014,08,11,12,35,25.90
2014,08,11,12,36,25.90
2014,08,11,12,37,25.90
2014,08,11,12,38,25.90
2014,08,11,12,39,25.90
2014,08,11,12,40,26.00
2014,08,11,12,41,26.00
2014,08,11,12,42,26.00
2014,08,11,12,43,26.00
2014,08,11,12,44,26.10
2014,08,11,12,45,26.10
2014,08,11,12,46,26.20
2014,08,11,12,47,26.20
2014,08,11,12,48,26.20
2014,08,11,12,49,26.20
2014,08,11,12,50,26.20
2014,08,11,12,51,26.20
2014,08,11,12,52,26.10
2014,08,11,12,53,26.10
2014,08,11,12,54,26.10
2014,08,11,12,55,26.10
2014,08,11,12,56,26.20
2014,08,11,12,57,26.20
2014,08,11,12,58,26.30
2014,08,11,12,59,26.40
2014,08,11,13,00,26.40
2014,08,11,13,01,26.40
2014,08,11,13,02,26.40
2014,08,11,13,03,26.30
2014,08,11,13,04,26.20
2014,08,11,13,05,26.20
2014,08,11,13,06,26.10
2014,08,11,13,07,26.10
2014,08,11,13,08,26.10
2014,08,11,13,09,26.20
2014,08,11,13,10,26.30
2014,08,11,13,11,26.50
2014,08,11,13,12,26.60
2014,08,11,13,13,26.60
2014,08,11,13,14,26.70
2014,08,11,13,15,26.80
2014,08,11,13,16,26.80
2014,08,11,13,17,26.80
2014,08,11,13,18,26.80
2014,08,11,13,19,26.80
2014,08,11,13,20,26.90
2014,08,11,13,21,26.90
2014,08,11,13,22,26.90
2014,08,11,13,23,27.00
2014,08,11,13,24,27.00
2014,08,11,13,25,27.00
2014,08,11,13,26,27.00
2014,08,11,13,27,27.00
2014,08,11,13,28,27.00
2014,08,11,13,29,26.90
2014,08,11,13,30,26.80
2014,08,11,13,31,26.70
2014,08,11,13,32,26.50
2014,08,11,13,33,26.40
2014,08,11,13,34,26.30
2014,08,11,13,35,26.20
2014,08,11,13,36,26.20
2014,08,11,13,37,26.20
2014,08,11,13,38,26.30
2014,08,11,13,39,26.50
2014,08,11,13,40,26.60
2014,08,11,13,41,26.70
2014,08,11,13,42,26.70
2014,08,11,13,43,26.80
2014,08,11,13,44,26.90
2014,08,11,13,45,27.00
2014,08,11,13,46,27.10
2014,08,11,13,47,27.10
2014,08,11,13,48,27.20
2014,08,11,13,49,27.20
2014,08,11,13,50,27.30
2014,08,11,13,51,27.30
2014,08,11,13,52,27.30
2014,08,11,13,53,27.40
2014,08,11,13,54,27.30
2014,08,11,13,55,27.30
2014,08,11,13,56,27.30
2014,08,11,13,57,27.30
2014,08,11,13,58,27.30
2014,08,11,13,59,27.30
2014,08,11,14,00,27.30
2014,08,11,14,01,27.30
2014,08,11,14,02,27.20
2014,08,11,14,03,27.10
2014,08,11,14,04,27.10
2014,08,11,14,05,27.10
2014,08,11,14,06,27.10
2014,08,11,14,07,27.10
2014,08,11,14,08,27.00
2014,08,11,14,09,26.90
2014,08,11,14,10,26.80
2014,08,11,14,11,26.70
2014,08,11,14,12,26.60
2014,08,11,14,13,26.60
2014,08,11,14,14,26.50
2014,08,11,14,15,26.50
2014,08,11,14,16,26.50
2014,08,11,14,17,26.40
2014,08,11,14,18,26.40
2014,08,11,14,19,26.40
2014,08,11,14,20,26.40
2014,08,11,14,21,26.40
2014,08,11,14,22,26.40
2014,08,11,14,23,26.40
2014,08,11,14,24,26.40
2014,08,11,14,25,26.40
2014,08,11,14,26,26.30
2014,08,11,14,27,26.30
2014,08,11,14,28,26.20
2014,08,11,14,29,26.20
2014,08,11,14,30,26.20
2014,08,11,14,31,26.20
2014,08,11,14,32,26.10
2014,08,11,14,33,26.10
2014,08,11,14,34,26.20
2014,08,11,14,35,26.30
2014,08,11,14,36,26.30
2014,08,11,14,37,26.30
2014,08,11,14,38,26.40
2014,08,11,14,39,26.50
2014,08,11,14,40,26.60
2014,08,11,14,41,26.60
2014,08,11,14,42,26.70
2014,08,11,14,43,26.70
2014,08,11,14,44,26.70
2014,08,11,14,45,26.60
2014,08,11,14,46,26.60
2014,08,11,14,47,26.60
2014,08,11,14,48,26.60
2014,08,11,14,49,26.70
2014,08,11,14,50,26.70
2014,08,11,14,51,26.70
2014,08,11,14,52,26.80
2014,08,11,14,53,26.80
2014,08,11,14,54,26.90
2014,08,11,14,55,26.90
2014,08,11,14,56,27.00
2014,08,11,14,57,27.10
2014,08,11,14,58,27.10
2014,08,11,14,59,27.00
2014,08,11,15,00,27.00
2014,08,11,15,01,26.80
2014,08,11,15,02,26.70
2014,08,11,15,03,26.50
2014,08,11,15,04,26.40
2014,08,11,15,05,26.30
2014,08,11,15,06,26.30
2014,08,11,15,07,26.30
2014,08,11,15,08,26.40
2014,08,11,15,09,26.50
2014,08,11,15,10,26.60
2014,08,11,15,11,26.60
2014,08,11,15,12,26.70
2014,08,11,15,13,26.70
2014,08,11,15,14,26.70
2014,08,11,15,15,26.70
2014,08,11,15,16,26.70
2014,08,11,15,17,26.80
2014,08,11,15,18,26.80
2014,08,11,15,19,26.80
2014,08,11,15,20,26.90
2014,08,11,15,21,27.00
2014,08,11,15,22,27.10
2014,08,11,15,23,27.10
2014,08,11,15,24,27.20
2014,08,11,15,25,27.30
2014,08,11,15,26,27.30
2014,08,11,15,27,27.40
2014,08,11,15,28,27.50
2014,08,11,15,29,27.60
2014,08,11,15,30,27.70
2014,08,11,15,31,27.80
2014,08,11,15,32,27.80
2014,08,11,15,33,27.90
2014,08,11,15,34,28.00
2014,08,11,15,35,28.00
2014,08,11,15,36,28.10
2014,08,11,15,37,28.10
2014,08,11,15,38,28.20
2014,08,11,15,39,28.20
2014,08,11,15,40,28.20
2014,08,11,15,41,28.30
2014,08,11,15,42,28.30
2014,08,11,15,43,28.30
2014,08,11,15,44,28.30
2014,08,11,15,45,28.30
2014,08,11,15,46,28.30
2014,08,11,15,47,28.30
2014,08,11,15,48,28.30
2014,08,11,15,49,28.30
2014,08,11,15,50,28.30
2014,08,11,15,51,28.30
2014,08,11,15,52,28.40
2014,08,11,15,53,28.50
2014,08,11,15,54,28.60
2014,08,11,15,55,28.70
2014,08,11,15,56,28.70
2014,08,11,15,57,28.70
2014,08,11,15,58,28.70
2014,08,11,15,59,28.70
2014,08,11,16,00,28.70
2014,08,11,16,01,28.70
2014,08,11,16,02,28.70
2014,08,11,16,03,28.80
2014,08,11,16,04,28.80
2014,08,11,16,05,28.80
2014,08,11,16,06,28.80
2014,08,11,16,07,28.80
2014,08,11,16,08,28.80
2014,08,11,16,09,28.80
2014,08,11,16,10,28.70
2014,08,11,16,11,28.70
2014,08,11,16,12,28.60
2014,08,11,16,13,28.60
2014,08,11,16,14,28.60
2014,08,11,16,15,28.60
2014,08,11,16,16,28.60
2014,08,11,16,17,28.60
2014,08,11,16,18,28.70
2014,08,11,16,19,28.70
2014,08,11,16,20,28.70
2014,08,11,16,21,28.70
2014,08,11,16,22,28.70
2014,08,11,16,23,28.70
2014,08,11,16,24,28.70
2014,08,11,16,25,28.80
2014,08,11,16,26,28.80
2014,08,11,16,27,28.90
2014,08,11,16,28,28.90
2014,08,11,16,29,29.00
2014,08,11,16,30,29.10
2014,08,11,16,31,29.20
2014,08,11,16,32,29.20
2014,08,11,16,33,29.30
2014,08,11,16,34,29.30
2014,08,11,16,35,29.30
2014,08,11,16,36,29.40
2014,08,11,16,37,29.40
2014,08,11,16,38,29.50
2014,08,11,16,39,29.50
2014,08,11,16,40,29.40
2014,08,11,16,41,29.40
2014,08,11,16,42,29.30
2014,08,11,16,43,29.30
2014,08,11,16,44,29.30
2014,08,11,16,45,29.30
2014,08,11,16,46,29.30
2014,08,11,16,47,29.30
2014,08,11,16,48,29.30
2014,08,11,16,49,29.30
2014,08,11,16,50,29.20
2014,08,11,16,51,29.20
2014,08,11,16,52,29.20
2014,08,11,16,53,29.20
2014,08,11,16,54,29.20
2014,08,11,16,55,29.20
2014,08,11,16,56,29.20
2014,08,11,16,57,29.20
2014,08,11,16,58,29.30
2014,08,11,16,59,29.40
2014,08,11,17,00,29.50
2014,08,11,17,01,29.60
2014,08,11,17,02,29.60
2014,08,11,17,03,29.70
2014,08,11,17,04,29.80
2014,08,11,17,05,29.90
2014,08,11,17,06,29.90
2014,08,11,17,07,30.00
2014,08,11,17,08,30.00
2014,08,11,17,09,30.10
2014,08,11,17,10,30.10
2014,08,11,17,11,30.20
2014,08,11,17,12,30.20
2014,08,11,17,13,30.20
2014,08,11,17,14,30.20
2014,08,11,17,15,30.20
2014,08,11,17,16,30.20
2014,08,11,17,17,30.20
2014,08,11,17,18,30.20
2014,08,11,17,19,30.20